[[{"header":{"parameterUnit":"m.s-1","parameterCategory":1,"la1":30.2991,"la2":30.254,"lo1":-89.0895,"lo2":-89.0444,"dy":0.0017,"dx":0.0017,"nx":28,"ny":28,"refTime":"2024-03-20T03:00:00:Z","depth":0,"parameterNumber":2,"parameterNumberName":"U-component_of_WINDS"},"data":[0,0,0,0,0,0,0,0,0,0,0,0,0,0,0,0,0,0,0,0,0,0,0,0,0,0,0,0,0,0,0,0,0,0,0,0,0,0,0,0,0,0,0,0,0,0,0,0,0,0,0,0,0,0,0,0,0,0,1.0502,1.0503,0,1.0561,1.0561,1.0562,1.0579,1.0579,1.0579,1.0578,1.0639,1.0641,1.0643,0,0,0,0,0,0,0,0,0,0,0,0,0,1.0403,1.0405,1.0502,1.0503,1.0503,1.0561,1.0561,1.0562,1.0579,1.0579,1.0578,1.0578,1.0639,1.0641,1.0643,0,0,0,0,0,0,0,0,0,0,0,0,0,1.0452,1.0405,1.0502,1.0519,1.0521,1.056,1.0561,1.0562,1.0579,1.0579,1.0578,1.0578,1.0638,1.0641,1.0644,1.0671,0,0,1.0652,1.0654,0,0,0,0,0,0,0,0,1.0449,1.0456,1.0515,1.0518,1.052,1.0562,1.0549,1.0599,1.0579,1.0557,1.0578,1.0578,1.0614,1.0619,1.0631,1.0674,1.0676,1.0653,1.0654,1.0656,1.0656,0,0,0,0,0,0,0,1.0446,1.0453,1.0525,1.0516,1.0519,1.0523,1.0529,1.0558,1.0588,1.0559,1.056,1.0567,1.0615,1.0628,1.0633,1.0677,1.0652,1.0655,1.0657,1.0658,1.0743,1.0743,0,0,0,0,0,0,1.044,1.0451,1.0523,1.0527,1.0483,1.0525,1.0532,1.0549,1.0587,1.0593,1.0567,1.0568,1.0623,1.0629,1.0635,1.0668,1.0656,1.0658,1.066,1.0742,1.0743,1.0743,0,0,0,0,0,0,1.0438,1.0446,1.0521,1.0489,1.0499,1.0527,1.0546,1.0551,1.0564,1.0594,1.0599,1.0575,1.0623,1.0631,1.0661,1.067,1.066,1.0662,1.0742,1.0742,1.0743,1.0735,0,0,0,0,0,0,1.0435,1.0445,1.0456,1.0489,1.0501,1.0547,1.0547,1.0552,1.0568,1.0569,1.0602,1.0608,1.0623,1.0657,1.0664,1.0674,1.0664,1.0741,1.0742,1.0743,1.0735,1.0736,1.0736,0,0,0,0,0,1.0431,1.0452,1.0457,1.0466,1.0515,1.0547,1.0554,1.0571,1.0569,1.058,1.0599,1.0607,1.0668,1.066,1.0668,1.0679,1.074,1.0742,1.0743,1.0734,1.0735,1.0736,0,0,0,0,0,0,1.0421,1.0457,1.0463,1.0495,1.0518,1.055,1.0565,1.0572,1.0597,1.0596,1.0617,1.0625,1.0653,1.0669,1.0659,1.0706,1.0704,1.0707,1.0695,1.0696,1.0697,1.0693,1.0667,0,0,0,0,0,1.0422,1.0445,1.0476,1.0502,1.0513,1.0536,1.0551,1.0563,1.0587,1.0597,1.0618,1.0642,1.0666,1.0682,1.0706,1.0737,1.0744,1.0748,1.0749,1.0749,1.0752,1.0767,1.0769,1.0747,1.0747,1.0747,0,0,1.0426,1.0448,1.0462,1.05,1.0519,1.0542,1.0545,1.057,1.0587,1.0601,1.0631,1.0647,1.0674,1.0704,1.0719,1.0718,1.0759,1.0751,1.0751,1.0753,1.0769,1.0771,1.0773,1.0748,1.0748,1.0748,0,0,1.0444,1.0463,1.0486,1.0505,1.0533,1.0548,1.0554,1.0584,1.0595,1.0625,1.0636,1.0656,1.0698,1.0717,1.0732,1.0753,1.0761,1.0761,1.0765,1.078,1.0782,1.0783,1.079,1.0792,1.0763,1.0763,1.0763,0,1.0445,1.048,1.0497,1.0521,1.0537,1.055,1.0572,1.0589,1.0624,1.0634,1.0634,1.0685,1.0705,1.0738,1.0743,1.0755,1.0761,1.0758,1.078,1.0782,1.0783,1.079,1.0793,1.0763,1.0763,1.0763,1.0763,0,1.0479,1.0503,1.0518,1.055,1.0568,1.0591,1.0611,1.0626,1.0635,1.065,1.068,1.0703,1.0731,1.074,1.075,1.0774,1.0773,1.0776,1.0774,1.0785,1.0792,1.0795,1.0762,1.0762,1.0762,1.0762,0,0,1.0494,1.0534,1.0539,1.0553,1.0584,1.0602,1.0625,1.0652,1.0664,1.0687,1.0706,1.074,1.0742,1.0759,1.077,1.0783,1.0797,1.0784,1.0785,1.0785,1.0825,1.0822,1.0825,1.0802,1.0803,1.0803,1.0822,0,1.0516,1.0557,1.0572,1.0606,1.0627,1.0639,1.0658,1.0679,1.0693,1.0713,1.0728,1.0751,1.0753,1.0762,1.0776,1.0793,1.0806,1.0792,1.082,1.082,1.0813,1.0829,1.0827,1.0844,1.0825,1.0825,1.0826,0,1.0547,1.0569,1.0605,1.0631,1.064,1.0658,1.0683,1.0702,1.0725,1.0734,1.0751,1.0761,1.0784,1.078,1.0812,1.0802,1.0814,1.0824,1.0825,1.0829,1.0824,1.0833,1.085,1.0853,1.083,1.083,1.0829,0,1.0553,1.0592,1.0618,1.0629,1.0661,1.0672,1.0686,1.0708,1.0723,1.0744,1.0754,1.0778,1.0791,1.0809,1.0824,1.082,1.0854,1.0852,1.0862,1.0861,1.0869,1.0869,1.0889,1.0877,1.0877,1.0877,1.0877,0,1.0576,1.0597,1.0621,1.0637,1.066,1.0677,1.0699,1.0714,1.0733,1.0751,1.0762,1.0779,1.0798,1.0818,1.083,1.0853,1.0859,1.0867,1.087,1.0866,1.0865,1.0875,1.0874,1.0877,1.0877,1.0877,1.0877,0,1.0588,1.0604,1.0633,1.066,1.0667,1.0683,1.0705,1.0721,1.0734,1.0757,1.0763,1.0785,1.0807,1.0824,1.0854,1.0862,1.0887,1.089,1.0879,1.0881,1.089,1.0888,1.0917,1.0921,1.0906,1.0906,1.0906,0,1.0601,1.0617,1.0645,1.0658,1.0671,1.0692,1.0706,1.0722,1.0736,1.0762,1.0774,1.0797,1.0817,1.0852,1.087,1.0893,1.0896,1.0905,1.09,1.0895,1.0896,1.0895,1.0896,1.0905,1.0906,1.0906,1.0906,0,1.0623,1.0629,1.065,1.0672,1.0689,1.0708,1.0727,1.0736,1.0755,1.0771,1.0794,1.0809,1.0838,1.0861,1.0884,1.0898,1.0905,1.0907,1.091,1.0906,1.0899,1.0902,1.0881,1.0906,1.0906,1.0906,1.0906,1.0906,1.0635,1.065,1.0671,1.0693,1.0708,1.0725,1.074,1.0755,1.0774,1.0799,1.0807,1.083,1.085,1.0883,1.0896,1.0914,1.0914,1.0919,1.0921,1.0922,1.0921,1.0896,1.0918,1.0918,1.0918,1.0918,1.0918,0,1.0657,1.0671,1.069,1.0716,1.0732,1.0736,1.0757,1.077,1.0791,1.0809,1.0827,1.0853,1.0874,1.0892,1.0914,1.0925,1.0929,1.093,1.093,1.0932,1.092,1.0915,1.0927,1.0927,1.0927,1.0927,1.0927,1.0927,1.067,1.0694,1.0703,1.0735,1.0748,1.0771,1.0782,1.0797,1.0811,1.0839,1.0856,1.0868,1.0886,1.0909,1.0928,1.0933,1.094,1.0941,1.0947,1.0935,1.0934,1.0933,1.0928,1.0943,1.0943,1.0958,1.0958,1.0958]},{"header":{"parameterUnit":"m.s-1","parameterCategory":1,"la1":30.2991,"la2":30.254,"lo1":-89.0895,"lo2":-89.0444,"dy":0.0017,"dx":0.0017,"nx":28,"ny":28,"refTime":"2024-03-20T03:00:00:Z","depth":0,"parameterNumber":3,"parameterNumberName":"V-component_of_WINDS"},"data":[0,0,0,0,0,0,0,0,0,0,0,0,0,0,0,0,0,0,0,0,0,0,0,0,0,0,0,0,0,0,0,0,0,0,0,0,0,0,0,0,0,0,0,0,0,0,0,0,0,0,0,0,0,0,0,0,0,0,3.3727,3.3726,0,3.3704,3.3704,3.3704,3.3719,3.3719,3.372,3.3721,3.3693,3.3691,3.369,0,0,0,0,0,0,0,0,0,0,0,0,0,3.3777,3.3776,3.3727,3.3726,3.3726,3.3704,3.3704,3.3704,3.3719,3.3719,3.372,3.3721,3.3693,3.3692,3.369,0,0,0,0,0,0,0,0,0,0,0,0,0,3.3755,3.3775,3.3727,3.3731,3.3731,3.3704,3.3704,3.3704,3.3718,3.3719,3.372,3.3721,3.3694,3.3692,3.369,3.3656,0,0,3.3683,3.3682,0,0,0,0,0,0,0,0,3.3756,3.3753,3.3731,3.3731,3.3731,3.3715,3.3712,3.3687,3.3718,3.3723,3.3721,3.3722,3.3699,3.3697,3.369,3.3655,3.3653,3.3683,3.3682,3.3681,3.368,0,0,0,0,0,0,0,3.3757,3.3754,3.3718,3.373,3.373,3.3732,3.373,3.3707,3.3705,3.3723,3.3724,3.3721,3.3699,3.3692,3.3689,3.3653,3.3683,3.3681,3.368,3.3679,3.3587,3.3586,0,0,0,0,0,0,3.3759,3.3755,3.3718,3.3717,3.3746,3.3731,3.3728,3.3719,3.3706,3.3705,3.372,3.3722,3.3695,3.3692,3.3689,3.3647,3.3681,3.3679,3.3678,3.3588,3.3587,3.3586,0,0,0,0,0,0,3.376,3.3756,3.3719,3.3736,3.3732,3.3729,3.3718,3.3718,3.3711,3.3704,3.3703,3.3714,3.3696,3.3691,3.3664,3.3647,3.3678,3.3676,3.359,3.3588,3.3586,3.3565,0,0,0,0,0,0,3.3762,3.3756,3.3745,3.3736,3.3731,3.3697,3.3717,3.3717,3.3708,3.371,3.3697,3.3696,3.3696,3.3667,3.3662,3.3644,3.3675,3.3591,3.3589,3.3587,3.3568,3.3563,3.3559,0,0,0,0,0,3.3763,3.3739,3.3744,3.3739,3.3717,3.3696,3.3693,3.3695,3.3707,3.3694,3.3689,3.3697,3.365,3.3664,3.3658,3.364,3.3592,3.359,3.3587,3.3569,3.3564,3.3559,0,0,0,0,0,0,3.3744,3.3738,3.3743,3.3716,3.3706,3.3698,3.3683,3.3689,3.3675,3.3677,3.3678,3.3675,3.3646,3.364,3.3657,3.3606,3.3623,3.3619,3.3611,3.3606,3.3602,3.3603,3.3673,0,0,0,0,0,3.3737,3.3722,3.3717,3.3692,3.3688,3.3686,3.3677,3.3679,3.3669,3.3665,3.3658,3.3646,3.3629,3.3617,3.36,3.3567,3.3563,3.3551,3.3547,3.3544,3.354,3.352,3.3514,3.3577,3.3577,3.3577,0,0,3.3721,3.3716,3.3706,3.3688,3.3681,3.3664,3.3682,3.3664,3.365,3.3661,3.3635,3.363,3.3616,3.3586,3.3572,3.358,3.3522,3.354,3.3538,3.3536,3.3517,3.3511,3.3506,3.3575,3.3575,3.3576,0,0,3.3683,3.3679,3.3658,3.365,3.364,3.3639,3.3634,3.3625,3.3622,3.3597,3.3604,3.3587,3.3558,3.3548,3.3539,3.3497,3.3502,3.3491,3.3469,3.345,3.3445,3.3441,3.3424,3.3419,3.3487,3.3487,3.3487,0,3.3665,3.3641,3.3646,3.3626,3.3618,3.3628,3.3606,3.3598,3.3582,3.3575,3.3585,3.3547,3.3539,3.3505,3.3495,3.3488,3.348,3.3492,3.3446,3.3441,3.3437,3.3422,3.3416,3.3486,3.3486,3.3486,3.3487,0,3.3618,3.3601,3.3585,3.3571,3.3561,3.354,3.354,3.3528,3.3531,3.3528,3.3501,3.3492,3.3473,3.3465,3.3468,3.3431,3.3437,3.3446,3.3463,3.343,3.3415,3.341,3.3484,3.3485,3.3485,3.3485,0,0,3.3567,3.3556,3.355,3.3544,3.3533,3.3519,3.3498,3.3482,3.3471,3.3459,3.3441,3.3415,3.3423,3.3413,3.3414,3.3397,3.3363,3.3408,3.3408,3.34,3.3321,3.3314,3.3307,3.3367,3.3366,3.3365,3.3322,0,3.3529,3.3494,3.3497,3.3463,3.3447,3.3456,3.3438,3.3428,3.3425,3.3409,3.3405,3.3386,3.3399,3.3393,3.3377,3.3371,3.3348,3.3374,3.3348,3.3347,3.3351,3.33,3.3292,3.3252,3.3317,3.3316,3.3315,0,3.3479,3.3467,3.3432,3.3424,3.3417,3.34,3.3385,3.337,3.3359,3.3357,3.3346,3.3349,3.3326,3.3344,3.3311,3.3329,3.3318,3.3313,3.3312,3.3309,3.3329,3.3295,3.324,3.3233,3.3306,3.3307,3.3308,0,3.3445,3.342,3.3396,3.339,3.3379,3.3367,3.3362,3.3351,3.3341,3.3327,3.3319,3.3302,3.3292,3.3278,3.3276,3.3289,3.3242,3.326,3.3239,3.3238,3.3228,3.3228,3.3169,3.3222,3.3222,3.3222,3.3222,0,3.3401,3.3379,3.338,3.3365,3.334,3.3343,3.3317,3.3313,3.3304,3.3286,3.3293,3.3276,3.3275,3.3257,3.3256,3.3228,3.3223,3.322,3.322,3.3219,3.3219,3.3212,3.3214,3.3221,3.3221,3.3221,3.3222,0,3.3358,3.3358,3.3332,3.3325,3.3322,3.3304,3.3296,3.3281,3.3278,3.3256,3.3251,3.3246,3.3226,3.3223,3.3198,3.3197,3.3163,3.3166,3.3167,3.3167,3.3146,3.3148,3.3079,3.307,3.3129,3.3129,3.3128,0,3.333,3.3313,3.3304,3.3294,3.3288,3.3271,3.3261,3.3263,3.3251,3.3237,3.3223,3.3203,3.3188,3.3154,3.3147,3.3127,3.3129,3.3107,3.3126,3.3126,3.3128,3.3128,3.3126,3.3102,3.3102,3.3101,3.3101,0,3.3279,3.328,3.3266,3.3251,3.3239,3.3228,3.3216,3.3207,3.3207,3.3194,3.3174,3.3162,3.3137,3.3117,3.3098,3.309,3.3094,3.3095,3.3089,3.3088,3.3089,3.3087,3.3156,3.3096,3.3097,3.3097,3.3097,3.3097,3.3242,3.3228,3.3219,3.3202,3.3195,3.3184,3.3169,3.3165,3.3149,3.313,3.3132,3.3109,3.3096,3.3072,3.3063,3.3043,3.3051,3.3042,3.304,3.3037,3.3035,3.3093,3.304,3.304,3.304,3.304,3.304,0,3.3191,3.3186,3.3171,3.3156,3.3143,3.315,3.3138,3.3126,3.3107,3.3095,3.308,3.3056,3.3036,3.3028,3.3008,3.2994,3.2996,3.2989,3.2989,3.2987,3.303,3.3037,3.2988,3.2988,3.2988,3.2988,3.2988,3.2988,3.3163,3.3139,3.3138,3.3109,3.3104,3.3083,3.3075,3.3065,3.3056,3.303,3.3014,3.3009,3.2998,3.2978,3.2959,3.2957,3.2949,3.2941,3.2939,3.2979,3.2984,3.299,3.2996,3.2939,3.2939,3.2898,3.2898,3.2898]}]]